Temp
5 5 5 5 5 5 5 5 5 6 6 6 7 8 9 9 9 9 9 10 10 11 11 11 11 11 11 11 11 11 11 12 12 12 11 12 13 12 12 13 11 12 12 12 12
5 5 5 5 5 5 5 5 5 5 5 6 6 7 8 9 9 9 9 10 10 11 11 11 11 11 11 11 11 11 11 11 12 12 11 12 12 12 12 12 12 11 9 8 9
5 5 5 5 5 5 5 5 5 5 5 5 6 6 6 8 8 9 9 9 10 10 10 10 10 11 10 11 11 10 11 11 11 11 12 12 12 12 11 11 10 12 10 10 10
4 4 5 4 4 4 4 4 5 5 5 5 6 6 6 6 7 8 9 9 10 10 10 10 10 10 10 10 10 10 11 10 11 10 11 11 11 10 10 10 9 10 10 10 10
4 4 4 4 4 4 4 4 5 5 5 5 5 5 5 6 6 7 8 9 9 9 9 9 10 10 10 10 10 9 10 10 10 10 10 10 10 11 10 9 9 9 9 9 9
4 4 4 4 4 4 4 4 4 4 4 5 5 5 5 5 5 7 7 8 8 9 9 9 9 10 10 10 9 10 10 10 9 10 10 9 8 10 8 8 9 9 9 8 8
3 3 3 3 3 4 4 4 4 4 4 4 4 5 5 5 5 6 7 7 7 8 8 9 9 9 10 9 10 9 10 10 9 9 8 9 8 8 8 8 9 9 9 9 9
3 3 3 3 3 3 3 3 4 4 4 4 4 4 5 4 5 6 6 6 7 7 7 8 9 9 9 8 9 9 10 9 8 8 8 9 5 7 7 8 8 8 8 8 8
3 3 3 3 3 3 3 3 3 3 3 4 4 4 4 4 5 5 6 6 6 6 7 8 8 8 9 8 8 8 9 9 8 8 8 8 5 5 6 7 8 8 7 7 7
2 2 3 3 3 3 3 3 3 3 3 3 3 3 3 3 4 5 5 5 6 6 7 7 7 7 9 8 8 8 8 9 9 7 7 8 6 5 5 6 7 7 8 7 7
2 2 2 2 2 2 3 2 2 3 3 3 3 3 3 2 4 4 4 5 5 5 6 7 7 7 8 8 8 8 9 8 8 7 7 7 6 5 5 5 6 6 6 7 6
2 2 2 2 2 2 2 2 2 2 3 3 3 3 2 3 3 3 4 4 4 5 5 6 7 8 7 7 7 7 8 8 7 6 7 5 4 4 4 5 5 5 5 6 5
1 1 2 1 1 1 2 2 2 1 2 4 3 3 2 3 3 2 3 3 4 4 5 5 7 7 6 6 7 7 7 7 7 5 5 5 3 3 3 3 3 4 4 4 5
1 1 1 1 1 1 1 1 1 1 1 4 4 3 2 2 2 2 3 2 3 3 4 5 5 6 6 6 7 7 7 7 7 6 3 5 2 3 3 3 2 3 3 4 5
1 1 1 1 0 1 1 -0 -0 -0 -5 3 3 2 3 2 2 2 3 2 3 4 4 4 5 5 6 6 7 7 7 7 8 5 4 4 4 3 3 2 2 3 3 4 4
1 0 0 0 -0 0 0 -1 -1 -1 -3 2 3 3 2 2 2 2 2 2 3 3 3 4 5 5 6 6 7 7 6 5 5 4 4 5 5 3 3 3 3 2 3 3 3
1 -0 -0 -0 -1 -0 -0 -1 -2 -2 2 2 3 3 2 2 1 1 2 2 2 3 4 4 5 5 5 6 7 6 5 4 4 3 2 5 5 5 4 3 4 4 4 3 3
-0 -0 -1 -1 -1 -1 -1 -2 -2 0 2 2 3 3 2 2 1 1 2 2 3 3 3 4 3 4 4 6 6 7 7 5 3 3 4 6 5 5 6 3 2 3 3 3 3
-2 -1 -2 -2 -2 -2 -2 -3 -1 -0 2 2 2 2 2 2 1 1 1 2 3 3 3 4 4 4 4 5 6 6 6 6 6 6 6 4 2 4 3 3 2 2 2 2 3
-2 -2 -3 -3 -3 -4 -4 -2 -2 -1 1 1 1 2 2 2 1 1 2 2 3 3 3 4 4 3 4 4 5 6 6 5 5 3 3 2 2 2 2 3 2 2 2 3 3
-4 -4 -5 -5 -5 -5 -5 -4 -3 -2 -1 0 -0 1 1 2 2 2 2 2 3 3 3 3 4 3 3 3 4 4 5 5 6 6 0 -0 2 3 4 4 3 3 3 4 4
-7 -6 -6 -7 -7 -7 -6 -5 -5 -3 -2 -1 -1 -0 0 1 2 2 2 2 3 3 3 3 3 3 3 3 4 4 5 5 5 4 5 6 3 4 4 4 4 3 3 3 3
-9 -7 -8 -8 -8 -7 -7 -7 -7 -5 -3 -3 -2 -2 -0 0 -0 2 2 3 3 3 3 3 3 1 1 2 3 3 3 4 5 6 5 3 3 4 3 3 3 3 3 2 1
-12 -11 -9 -9 -9 -8 -8 -7 -7 -7 -7 -5 -3 -2 -1 0 0 1 2 2 2 3 2 3 3 3 2 3 3 3 4 4 4 5 5 5 4 3 4 3 3 2 2 1 -0
-14 -14 -13 -10 -11 -10 -10 -9 -9 -8 -8 -6 -5 -3 -3 -2 -0 0 1 1 2 2 3 2 3 2 3 3 3 4 4 4 4 4 5 6 5 5 5 4 4 3 1 -0 -0
-15 -14 -14 -14 -12 -11 -11 -11 -10 -9 -8 -8 -7 -5 -4 -4 -2 -1 -1 1 2 2 2 2 2 2 2 2 3 3 4 4 4 4 4 5 4 5 5 3 3 2 1 0 0
-15 -15 -15 -15 -14 -12 -12 -12 -11 -10 -8 -9 -8 -7 -4 -3 -3 -2 -2 -1 0 2 2 2 2 1 1 2 2 2 4 3 3 3 4 4 4 3 3 3 2 1 1 0 1
Height
3135 3134 3132 3132 3131 3131 3131 3130 3130 3131 3131 3132 3133 3135 3138 3141 3143 3146 3149 3153 3153 3155 3156 3157 3158 3159 3161 3162 3165 3166 3169 3169 3168 3169 3171 3175 3176 3176 3176 3175 3176 3176 3176 3179 3181
3133 3131 3129 3128 3128 3127 3127 3126 3126 3126 3127 3127 3128 3129 3132 3135 3138 3140 3145 3147 3148 3150 3152 3154 3154 3156 3159 3160 3163 3164 3167 3167 3167 3166 3169 3172 3176 3176 3177 3178 3175 3175 3176 3180 3181
3130 3128 3126 3125 3124 3123 3123 3122 3121 3121 3122 3123 3124 3125 3126 3129 3132 3135 3138 3141 3142 3145 3147 3150 3151 3154 3157 3158 3160 3162 3165 3165 3167 3169 3170 3172 3175 3177 3176 3176 3175 3174 3174 3177 3178
3127 3125 3123 3121 3120 3120 3118 3118 3118 3117 3117 3118 3119 3119 3122 3124 3129 3129 3133 3135 3137 3140 3143 3145 3147 3150 3153 3156 3158 3160 3164 3165 3165 3168 3169 3171 3174 3177 3174 3175 3176 3174 3174 3175 3176
3125 3123 3121 3119 3117 3115 3115 3114 3114 3113 3113 3114 3115 3115 3116 3119 3122 3125 3128 3129 3132 3135 3138 3140 3143 3146 3150 3153 3155 3158 3161 3164 3165 3166 3168 3170 3173 3169 3172 3174 3176 3175 3174 3175 3176
3122 3120 3118 3116 3114 3112 3111 3110 3110 3109 3109 3110 3110 3110 3112 3115 3115 3119 3124 3125 3126 3130 3134 3137 3139 3141 3146 3149 3150 3154 3159 3163 3162 3163 3167 3169 3168 3168 3171 3174 3174 3176 3174 3175 3176
3119 3117 3115 3113 3111 3109 3108 3107 3106 3105 3105 3106 3105 3106 3107 3114 3110 3115 3119 3122 3123 3125 3129 3132 3135 3139 3142 3145 3148 3151 3154 3159 3160 3160 3162 3164 3167 3166 3168 3171 3172 3173 3174 3175 3175
3115 3114 3112 3111 3109 3107 3104 3103 3103 3102 3102 3102 3101 3102 3103 3105 3107 3111 3113 3117 3119 3121 3125 3128 3133 3135 3139 3141 3145 3147 3151 3155 3157 3158 3160 3162 3163 3165 3167 3169 3170 3171 3172 3173 3174
3112 3110 3108 3107 3106 3104 3101 3100 3099 3098 3097 3097 3098 3099 3100 3100 3105 3106 3110 3112 3115 3116 3120 3125 3129 3132 3136 3140 3141 3141 3144 3149 3154 3156 3157 3158 3161 3162 3165 3167 3166 3168 3170 3172 3173
3108 3107 3105 3103 3102 3101 3099 3097 3096 3096 3094 3093 3095 3099 3098 3098 3100 3102 3104 3106 3110 3111 3115 3119 3122 3125 3128 3132 3130 3135 3141 3145 3148 3152 3155 3154 3158 3160 3161 3163 3162 3163 3166 3168 3168
3102 3102 3102 3101 3099 3097 3097 3096 3096 3095 3092 3093 3092 3093 3091 3094 3096 3098 3100 3101 3104 3106 3109 3111 3115 3112 3117 3125 3130 3135 3136 3141 3147 3148 3152 3153 3154 3158 3158 3157 3158 3159 3162 3164 3165
3095 3095 3097 3097 3096 3093 3092 3093 3092 3090 3089 3088 3088 3089 3089 3090 3090 3093 3096 3099 3100 3101 3105 3107 3103 3111 3118 3124 3129 3132 3135 3140 3146 3149 3150 3153 3155 3156 3156 3156 3155 3155 3157 3160 3164
3089 3090 3090 3092 3091 3090 3089 3090 3089 3087 3084 3085 3084 3085 3088 3089 3088 3091 3093 3094 3096 3099 3099 3098 3101 3107 3113 3118 3123 3127 3129 3135 3138 3145 3149 3149 3157 3156 3155 3153 3151 3152 3154 3155 3159
3084 3084 3086 3085 3089 3087 3087 3088 3086 3086 3083 3080 3078 3079 3083 3085 3085 3088 3090 3094 3093 3095 3097 3097 3099 3103 3108 3112 3117 3119 3124 3131 3132 3136 3140 3145 3153 3154 3153 3152 3152 3152 3151 3153 3155
3078 3078 3078 3081 3081 3083 3087 3084 3084 3086 3086 3077 3074 3076 3078 3081 3084 3084 3088 3090 3092 3094 3096 3094 3096 3101 3105 3106 3110 3112 3120 3124 3127 3132 3136 3141 3144 3145 3148 3149 3149 3150 3150 3151 3154
3072 3071 3072 3074 3075 3077 3081 3082 3084 3087 3077 3071 3072 3072 3075 3077 3081 3082 3084 3088 3090 3090 3091 3093 3095 3098 3100 3104 3108 3109 3118 3128 3132 3135 3135 3132 3135 3137 3136 3139 3145 3146 3147 3148 3150
3065 3065 3065 3067 3068 3071 3074 3078 3083 3077 3071 3069 3068 3069 3072 3074 3077 3078 3081 3082 3085 3087 3086 3088 3091 3094 3097 3102 3106 3107 3111 3125 3135 3134 3129 3130 3133 3127 3131 3135 3140 3142 3144 3145 3147
3060 3058 3059 3060 3060 3065 3069 3073 3070 3065 3067 3066 3066 3068 3068 3071 3073 3076 3078 3079 3081 3083 3084 3084 3090 3089 3093 3097 3099 3103 3103 3105 3115 3122 3123 3127 3124 3121 3125 3131 3137 3141 3143 3143 3143
3054 3054 3052 3051 3053 3057 3062 3061 3057 3061 3067 3067 3065 3064 3066 3068 3071 3073 3074 3075 3077 3079 3082 3082 3084 3086 3090 3094 3099 3099 3101 3105 3106 3111 3118 3119 3119 3120 3121 3127 3133 3136 3137 3139 3141
3048 3049 3047 3045 3047 3051 3053 3049 3052 3058 3063 3063 3062 3063 3061 3063 3067 3069 3070 3068 3071 3074 3078 3079 3081 3082 3085 3090 3095 3095 3099 3101 3101 3107 3113 3114 3113 3108 3116 3120 3127 3130 3132 3135 3137
3041 3042 3041 3039 3041 3044 3042 3043 3045 3053 3061 3060 3060 3058 3060 3060 3061 3061 3063 3066 3066 3069 3074 3076 3076 3080 3082 3082 3084 3089 3092 3095 3099 3099 3101 3111 3103 3103 3107 3112 3117 3125 3130 3132 3134
3035 3038 3038 3035 3037 3035 3035 3037 3043 3045 3053 3050 3052 3055 3056 3057 3057 3056 3057 3060 3063 3064 3067 3070 3071 3073 3075 3079 3083 3085 3088 3090 3092 3095 3095 3095 3099 3101 3108 3113 3117 3122 3126 3128 3129
3029 3032 3033 3032 3033 3033 3035 3036 3036 3039 3045 3045 3046 3050 3050 3052 3054 3051 3053 3056 3058 3060 3062 3065 3067 3071 3076 3079 3077 3077 3081 3086 3088 3091 3090 3092 3095 3098 3105 3110 3114 3119 3122 3124 3126
3027 3027 3029 3028 3028 3028 3027 3028 3031 3033 3033 3038 3039 3043 3045 3046 3049 3047 3048 3050 3053 3055 3058 3061 3061 3062 3061 3063 3068 3071 3075 3081 3084 3085 3085 3085 3089 3093 3099 3105 3109 3114 3117 3120 3121
3025 3026 3026 3022 3024 3023 3024 3022 3023 3026 3028 3032 3031 3037 3043 3040 3040 3041 3043 3044 3046 3049 3052 3055 3055 3059 3062 3062 3063 3064 3069 3073 3075 3079 3081 3082 3083 3086 3092 3098 3103 3108 3113 3116 3116
3024 3025 3021 3018 3017 3016 3017 3016 3017 3022 3023 3022 3024 3028 3031 3031 3036 3036 3041 3040 3040 3043 3045 3048 3051 3056 3057 3058 3059 3060 3063 3067 3069 3074 3077 3080 3080 3086 3092 3097 3100 3103 3107 3110 3112
3017 3017 3015 3012 3012 3012 3011 3012 3012 3016 3014 3015 3017 3018 3020 3026 3029 3028 3030 3034 3036 3036 3039 3042 3046 3050 3051 3054 3054 3056 3050 3056 3062 3067 3070 3070 3073 3079 3084 3088 3092 3098 3102 3105 3106
Wind_Speed
17 16 16 17 16 15 15 14 15 17 21 25 26 26 27 29 29 28 27 23 22 19 18 16 15 14 11 11 12 12 6 9 15 19 19 15 10 9 4 7 8 7 8 7 8
16 16 17 17 17 16 16 15 15 17 19 22 26 27 27 28 31 29 26 24 23 21 18 16 17 15 13 14 14 11 13 15 17 21 22 18 12 9 10 9 9 10 16 17 12
17 17 17 17 17 17 17 16 16 16 18 22 24 26 27 27 30 29 27 25 24 22 18 17 18 18 13 17 16 13 12 20 19 17 12 13 13 10 8 9 12 13 15 13 9
16 16 17 17 17 17 16 17 16 16 18 21 23 25 27 25 21 29 28 25 23 24 19 17 20 19 17 21 16 10 18 18 19 17 12 12 12 16 14 15 15 13 12 12 12
18 17 17 17 17 16 17 17 17 17 19 18 20 22 25 27 25 22 22 26 23 24 21 20 20 20 19 21 19 14 20 19 17 21 14 14 14 17 17 22 22 17 16 15 15
16 17 17 16 16 16 17 17 18 17 18 18 18 20 23 25 27 26 23 18 19 21 21 22 20 22 22 26 21 20 18 19 18 19 18 18 27 19 21 20 21 22 21 18 17
18 17 17 16 15 14 16 16 17 17 16 17 17 19 21 18 25 25 26 25 15 14 23 24 24 23 26 18 21 19 25 22 20 23 24 18 19 20 21 22 18 18 21 23 22
18 17 17 16 15 13 13 14 16 15 14 15 16 19 18 20 23 26 24 24 25 20 18 23 25 26 27 12 21 27 25 25 25 26 28 21 21 18 21 22 22 20 21 22 22
19 18 16 15 14 14 12 12 14 13 12 14 15 17 18 22 19 24 24 22 25 23 24 18 24 29 28 23 30 29 25 24 28 30 28 22 25 20 19 22 24 23 20 19 20
21 19 17 15 14 14 13 11 12 13 12 13 15 13 12 13 19 21 21 23 23 21 23 26 26 33 36 33 34 30 22 25 27 27 25 25 25 19 17 21 25 25 23 19 15
20 21 19 17 14 14 14 12 9 14 13 14 15 16 14 11 11 15 16 18 21 22 26 29 31 42 44 40 36 28 28 22 19 26 24 29 30 22 20 22 23 23 22 19 12
21 19 19 18 17 16 15 14 14 12 17 16 20 17 19 14 15 13 13 18 22 23 24 29 39 36 35 31 28 24 26 25 21 30 26 30 24 18 18 21 21 18 16 12 5
23 21 18 19 19 18 18 15 14 16 19 15 18 19 19 17 12 11 10 15 20 22 29 32 28 30 33 31 30 30 31 29 35 31 27 33 21 18 13 14 15 16 15 16 8
22 23 21 18 20 20 17 14 14 14 11 15 14 20 24 23 21 15 13 16 18 19 26 22 22 26 26 26 30 40 36 27 46 41 37 30 13 22 24 20 18 19 18 16 10
20 21 23 20 21 20 15 12 12 9 4 5 9 10 17 28 8 20 14 19 19 16 22 16 22 22 24 27 29 30 29 41 49 40 29 26 9 33 28 25 24 22 18 15 10
22 21 22 22 20 21 17 12 11 6 7 8 6 11 13 21 18 10 20 22 19 19 13 17 19 21 28 28 21 23 39 42 37 33 10 27 16 26 42 37 29 25 21 18 13
27 22 20 22 22 21 18 16 11 10 7 11 13 14 12 16 20 15 14 26 21 15 19 21 20 25 23 23 25 46 47 15 6 7 4 30 19 13 39 38 29 24 21 17 15
24 26 20 20 25 21 21 21 16 12 17 3 17 15 16 15 23 21 17 26 26 14 20 20 14 28 22 29 36 45 43 24 9 8 9 24 14 17 26 39 35 28 23 20 19
20 22 18 21 25 23 25 28 21 27 5 19 7 18 18 15 15 25 23 22 33 24 17 21 15 26 22 31 35 42 35 19 7 10 17 10 5 8 40 42 38 34 30 25 20
18 14 16 18 24 25 30 36 30 27 18 11 10 14 19 18 23 18 21 14 30 28 21 10 15 16 26 29 28 42 32 16 8 7 6 9 15 25 43 45 43 39 34 27 23
19 11 11 14 19 26 35 38 35 35 24 27 14 13 12 21 21 29 18 25 10 35 27 19 17 18 26 28 35 29 37 14 13 8 5 5 11 30 45 48 48 42 34 29 25
17 9 10 14 15 25 33 35 35 29 26 29 32 23 17 11 21 29 32 26 12 22 30 29 13 19 29 24 30 34 37 31 21 10 6 12 6 19 35 44 42 37 31 27 21
20 7 15 21 16 21 24 27 29 34 30 27 29 21 24 21 8 18 30 30 30 22 32 28 16 11 13 21 28 34 33 31 21 24 15 9 6 23 31 40 40 35 31 27 22
17 9 7 23 25 21 23 25 25 23 32 31 37 29 26 27 19 10 12 25 33 29 21 27 25 23 25 14 30 35 38 32 32 20 21 20 19 29 34 39 38 33 29 26 24
10 12 8 11 15 19 21 24 20 20 19 25 21 36 28 31 25 20 20 20 29 32 34 31 30 25 23 27 13 32 44 40 39 31 25 27 28 34 36 38 36 31 29 30 30
9 10 13 24 22 26 25 30 25 18 24 33 28 30 27 27 24 23 20 22 27 33 35 33 26 26 23 18 21 22 29 47 42 37 33 23 26 27 29 31 32 32 34 33 30
17 20 21 24 22 27 31 29 31 26 19 21 29 32 34 32 26 26 23 26 27 31 38 36 32 27 29 24 20 23 37 44 46 40 42 38 34 35 39 37 36 36 35 32 27
Wind_Direction
312 304 291 288 286 282 283 281 270 261 254 247 242 237 239 247 249 246 249 248 247 246 246 252 247 233 222 201 201 203 154 142 146 166 150 170 211 174 155 168 145 118 101 101 91
313 312 302 292 289 285 284 282 275 263 255 249 246 241 236 239 245 245 244 243 243 244 243 241 236 231 217 191 189 184 172 138 146 173 156 160 194 171 162 158 152 125 103 98 115
315 315 311 300 294 289 286 284 277 271 264 256 248 248 242 237 241 243 241 239 238 242 239 235 230 224 209 193 179 169 172 158 149 163 182 183 179 168 188 171 141 150 150 156 170
313 312 310 306 299 294 288 285 278 272 269 264 257 250 241 241 241 241 239 234 232 237 234 226 223 220 205 186 169 195 171 164 158 164 174 170 183 155 198 168 158 168 182 189 195
314 311 308 308 303 299 293 287 278 276 273 267 262 253 242 242 239 232 236 231 224 229 232 221 217 218 203 182 178 186 162 176 174 167 173 162 155 185 181 163 168 175 173 186 205
310 310 309 306 307 301 295 291 282 275 271 268 262 253 247 245 243 233 226 224 219 227 224 227 209 209 197 182 190 193 190 177 175 180 161 151 143 175 165 175 176 184 184 190 198
307 309 308 306 305 302 296 289 284 276 273 265 258 254 249 236 244 237 225 228 208 208 213 217 210 202 189 190 198 194 196 179 179 168 152 176 155 183 180 187 200 197 200 201 208
298 304 306 305 301 299 294 291 283 278 273 264 256 253 250 242 238 239 231 227 225 221 217 215 212 194 189 181 178 185 196 175 176 172 168 178 148 168 184 201 205 210 207 205 213
291 294 298 302 300 295 290 287 282 275 269 261 252 248 242 241 237 237 236 230 224 220 221 210 209 195 201 175 173 181 178 180 169 175 171 181 155 173 193 219 225 222 216 217 223
289 289 291 292 294 290 286 282 285 279 267 266 256 244 236 237 234 234 234 229 227 220 213 209 204 202 202 193 188 185 183 184 178 181 185 178 169 180 208 225 227 232 237 240 243
283 285 285 286 286 282 282 276 271 273 263 251 247 222 212 215 231 235 231 223 222 218 213 205 203 206 206 205 205 198 194 181 184 181 174 177 172 187 210 225 229 236 245 248 246
273 274 278 279 278 274 270 272 267 264 270 254 254 235 225 222 227 250 229 219 216 218 204 204 213 211 211 210 209 206 209 203 181 172 177 164 157 182 214 236 247 255 260 262 215
271 270 268 272 271 267 270 270 267 270 279 258 254 245 230 244 230 241 235 213 211 212 200 206 213 206 207 208 207 201 190 189 180 170 169 165 146 176 196 239 254 268 273 276 286
278 268 266 261 266 265 268 272 265 274 284 279 250 237 218 233 237 222 215 210 199 216 199 214 202 199 199 204 208 209 198 204 180 171 156 181 157 189 204 216 237 253 261 271 279
278 269 260 255 258 262 261 256 247 256 340 254 213 216 221 220 225 221 228 218 204 180 205 206 200 195 194 201 204 217 209 192 188 173 165 187 164 194 210 214 221 234 248 262 271
282 272 259 251 248 251 248 244 228 213 252 217 218 216 206 216 219 226 224 221 216 215 234 216 191 203 203 201 195 197 164 167 163 168 197 190 197 196 200 213 213 227 243 260 280
277 277 263 249 243 240 235 224 202 221 226 215 220 227 239 226 212 212 223 211 202 185 188 193 203 201 199 191 176 157 154 144 163 200 212 193 203 219 209 212 227 229 238 253 271
272 274 269 249 237 232 224 211 215 243 214 242 226 237 227 234 214 224 222 220 196 192 186 184 194 198 189 185 175 175 168 167 169 183 182 190 227 223 226 210 215 227 239 249 265
281 270 273 248 231 222 219 209 223 229 242 232 209 218 215 217 225 210 234 236 208 202 193 199 200 204 195 189 180 178 187 189 120 151 155 194 150 176 191 198 208 216 226 239 258
291 273 272 245 226 219 220 226 231 224 216 225 238 225 225 225 208 214 218 243 223 209 201 213 201 200 198 195 194 190 187 177 180 157 167 189 188 175 187 195 203 214 226 239 255
305 293 250 241 223 221 224 228 237 233 224 245 251 249 281 235 228 217 222 232 247 215 205 223 210 190 195 198 196 193 199 196 190 206 152 149 225 200 193 202 205 214 227 240 253
304 291 217 234 219 228 234 235 240 235 222 239 247 247 256 255 245 224 225 231 233 226 214 218 210 190 204 206 206 211 207 202 196 190 192 198 188 202 206 206 214 218 227 238 246
309 301 218 211 216 243 259 262 259 252 237 238 242 249 246 248 282 239 241 242 247 239 225 214 211 164 199 216 213 214 207 204 207 206 202 164 184 186 198 209 214 221 223 230 234
312 312 224 223 229 241 254 253 264 262 256 245 247 234 235 247 246 258 241 240 233 230 227 226 222 212 203 213 215 211 209 206 210 205 204 215 190 176 191 203 208 211 222 224 234
308 312 278 245 230 245 250 250 261 257 262 239 250 244 262 271 264 255 257 257 238 227 229 232 228 220 224 235 231 227 211 208 212 214 211 221 211 197 193 199 208 215 216 221 232
280 296 289 269 261 259 254 252 259 263 260 256 253 245 240 248 249 269 292 267 235 224 224 224 229 228 219 223 227 218 221 216 217 216 220 227 219 216 203 204 208 214 217 224 237
256 251 267 277 275 266 265 275 267 257 245 248 250 250 236 237 252 253 267 263 255 240 228 221 222 216 222 216 211 222 219 216 217 218 219 215 215 195 201 206 211 213 221 231 233